Temp
41 41 41 41 40 40 39 39 39 39 39 37 37 37 37 37 37 37 36 36 36 36 36 36 36 36 36 35 34 33 32 32 32 33 33 33 32 31 31 31 31 30 30 30 30 29 29 29 28 28 29 29 29 29 29 29 30 29 29 28 29 29 29 28 28 28 28 28 28
41 41 41 41 41 41 39 39 39 39 39 37 37 37 37 37 37 37 37 36 36 36 36 36 36 36 35 35 34 33 32 32 32 32 33 33 32 31 30 30 30 30 30 30 29 29 28 28 28 28 28 28 28 28 28 29 29 29 28 28 28 29 29 28 28 28 28 28 28
41 40 40 40 40 40 39 38 38 38 38 37 37 37 37 37 37 37 37 36 37 37 36 36 36 35 35 34 33 33 32 32 32 32 32 32 32 31 30 30 30 30 30 30 29 28 28 28 28 28 28 28 28 28 28 29 29 29 28 28 28 29 29 28 29 29 28 28 28
40 40 39 39 40 39 39 39 38 38 38 37 37 36 36 37 37 37 37 37 36 36 36 36 35 35 34 33 32 32 32 32 32 32 32 32 31 31 30 30 30 29 29 29 29 28 28 28 28 28 28 28 28 28 28 29 29 28 28 28 28 28 28 28 29 29 29 28 28
40 40 39 39 39 39 39 39 38 38 38 37 36 35 35 36 36 37 37 36 35 35 35 35 35 34 34 33 32 32 32 32 32 32 31 31 31 30 30 30 29 29 29 29 28 28 28 28 27 28 28 28 28 28 29 29 29 28 28 29 29 29 28 28 29 29 29 29 28
40 39 39 39 39 39 39 39 39 38 37 37 36 35 35 35 35 36 36 35 35 35 35 35 35 34 33 32 31 31 31 32 32 32 31 31 30 30 29 29 29 29 29 28 28 28 28 27 27 27 27 27 27 28 29 29 28 28 28 28 28 29 29 28 29 29 29 28 28
40 39 39 39 38 38 38 39 38 38 37 36 35 35 35 35 35 35 36 36 35 35 35 35 34 34 32 31 30 30 30 30 31 32 31 30 30 29 29 29 29 29 29 28 28 28 27 27 27 27 27 28 28 28 28 28 27 27 27 27 28 28 28 28 28 28 28 28 27
40 40 39 38 38 38 38 38 38 37 36 35 35 35 35 35 35 35 35 35 35 34 34 34 33 33 32 31 30 30 30 30 31 31 31 30 30 29 29 29 28 28 28 28 28 28 27 27 27 27 27 28 28 28 28 27 26 26 26 27 28 28 28 28 28 28 28 27 26
40 39 38 38 37 37 37 37 37 36 36 35 35 35 35 35 34 34 34 34 35 34 34 34 33 32 32 31 30 30 30 30 30 30 30 30 29 29 28 28 28 28 28 28 28 27 27 27 27 27 27 28 28 28 28 27 25 25 25 26 27 28 28 28 28 28 27 27 26
39 39 38 37 37 37 36 36 36 36 35 35 35 35 36 36 35 34 34 34 35 34 33 33 33 32 31 30 30 30 30 30 30 30 29 29 29 28 28 28 28 27 27 28 28 27 27 27 27 27 27 28 27 27 27 26 25 25 25 26 27 27 27 28 28 27 27 26 25
39 38 37 37 36 36 36 36 35 35 35 35 35 35 35 36 35 34 34 35 34 34 33 33 32 31 30 30 30 30 30 30 30 29 29 29 29 29 28 28 28 27 27 27 27 27 27 26 26 26 26 27 27 27 26 26 25 25 24 26 26 26 26 27 27 27 26 26 25
39 38 37 37 36 35 35 35 35 34 34 34 34 34 34 34 34 34 34 34 34 33 33 32 31 31 30 30 30 31 31 30 30 29 29 28 29 28 28 28 27 27 27 27 27 27 27 26 26 26 26 26 26 26 26 25 25 24 24 25 25 25 25 25 26 26 26 26 25
39 38 37 36 35 35 34 34 34 34 34 34 34 34 34 34 34 34 34 33 33 33 32 32 31 31 30 30 30 31 30 30 30 29 29 28 28 28 28 27 27 27 26 27 27 27 27 26 26 25 25 25 26 26 25 25 24 24 24 25 25 25 25 25 25 26 26 26 25
38 38 37 36 35 34 33 33 33 33 34 34 34 34 34 34 34 34 34 33 33 32 32 31 31 31 31 31 31 30 30 30 29 29 29 28 28 28 27 27 27 26 26 27 27 27 27 26 26 26 25 25 25 25 25 25 25 24 24 24 24 25 25 25 26 26 25 25 25
38 37 36 35 34 33 33 33 33 33 34 34 34 34 34 34 34 34 34 33 32 32 32 31 31 31 31 31 31 30 30 30 29 29 29 28 28 28 27 27 26 26 26 27 26 26 26 26 26 26 26 25 25 25 25 25 25 25 25 25 25 25 25 25 26 26 25 24 24
37 37 36 35 34 33 33 33 33 34 34 34 34 34 34 33 34 34 33 32 32 32 32 30 30 30 30 31 31 30 30 30 29 29 28 28 28 27 27 27 26 26 26 26 26 26 26 27 27 26 26 25 25 25 25 25 25 25 25 25 25 25 25 26 26 25 25 24 24
37 36 35 34 33 33 33 33 33 34 34 34 33 33 33 33 33 33 33 32 32 32 31 30 30 30 30 30 30 30 29 29 29 28 28 28 27 27 27 27 26 26 26 26 26 26 26 26 27 26 26 25 25 25 25 25 25 25 25 26 26 25 25 26 25 25 25 25 25
37 36 35 34 33 33 32 32 33 33 34 33 33 33 33 33 32 32 33 33 32 31 30 30 30 29 29 29 29 29 29 29 28 28 28 28 28 27 27 26 26 26 26 26 26 26 26 26 26 26 26 25 25 25 25 25 25 25 25 26 25 25 25 25 25 25 25 25 25
36 36 35 34 33 33 32 32 33 33 33 33 33 32 32 32 32 32 32 32 32 31 30 30 29 29 29 29 29 29 29 29 28 28 28 28 28 27 27 27 27 26 26 26 26 26 27 27 26 26 26 25 25 25 25 25 25 25 25 25 25 25 25 25 25 25 25 25 25
36 36 35 34 33 33 32 32 33 33 33 33 32 32 31 31 31 31 31 31 32 32 31 30 29 29 29 29 28 28 29 29 28 28 28 28 27 27 27 27 27 26 26 26 26 26 27 27 27 26 26 25 25 25 25 25 25 25 25 25 25 25 25 25 25 25 25 25 25
36 36 35 34 33 33 33 33 32 32 32 32 32 31 31 31 31 31 31 31 32 31 30 30 29 29 28 28 28 28 28 29 28 28 28 28 27 27 27 27 27 26 26 26 26 26 26 27 27 26 26 25 25 25 25 25 25 25 25 25 25 25 25 26 26 26 26 25 25
36 36 35 34 34 33 33 33 32 32 32 32 31 31 31 30 30 30 30 31 31 31 30 30 29 29 28 28 28 28 28 30 29 28 28 28 27 27 27 27 27 26 26 25 26 26 26 27 26 26 25 25 25 25 25 25 26 25 25 26 26 26 26 27 27 27 26 26 26
36 36 35 35 34 34 33 33 32 32 32 31 31 31 30 30 30 30 30 31 31 30 30 30 30 29 29 29 28 28 29 29 29 29 29 28 27 27 27 27 27 26 26 26 26 26 26 26 26 25 25 25 24 25 25 25 25 25 25 26 26 26 26 27 27 28 28 28 28
36 36 35 34 34 33 33 32 32 31 31 31 31 31 30 30 30 30 30 30 30 30 30 29 29 29 29 29 29 29 28 28 28 28 28 28 28 27 27 27 27 26 26 26 27 27 26 26 25 25 24 24 24 25 25 25 25 25 25 25 25 26 27 28 28 29 29 29 30
36 35 35 34 33 33 32 32 31 31 31 31 31 31 30 30 30 30 29 29 29 29 29 29 29 29 29 29 29 29 28 28 28 27 27 27 27 27 27 27 27 27 27 27 30 31 31 29 27 26 25 24 24 24 24 24 25 25 25 25 26 26 27 28 29 30 30 31 31
35 35 34 34 33 32 32 32 31 31 31 31 31 31 30 30 30 30 29 29 29 29 29 29 29 29 29 29 29 28 28 28 28 28 27 27 27 27 27 27 27 27 27 29 32 33 34 34 32 30 27 25 25 25 25 25 25 25 25 26 26 27 28 28 29 30 31 32 32
35 34 34 33 32 32 32 32 32 31 31 31 31 30 30 30 30 30 29 28 28 28 28 28 29 29 30 29 28 28 28 28 28 28 27 27 27 27 27 27 27 26 27 30 33 34 36 36 36 34 32 28 27 26 26 27 27 27 27 27 27 28 28 28 29 31 32 33 34
35 34 34 33 32 32 32 32 32 32 31 31 31 31 30 30 30 29 29 28 28 28 28 28 28 29 29 29 28 27 27 28 28 28 28 28 27 27 27 27 27 27 29 32 34 35 36 37 37 37 36 33 30 29 28 29 29 29 29 29 29 29 29 30 30 31 32 33 34
35 34 34 33 33 32 32 32 32 32 32 31 31 31 30 30 29 29 29 28 28 28 27 27 28 28 29 28 28 28 27 27 28 28 28 27 27 27 27 28 27 29 31 33 34 36 37 38 38 39 38 37 34 32 32 31 31 32 32 32 32 32 32 32 32 33 33 33 33
34 34 33 33 33 33 33 32 32 32 32 32 31 30 30 30 29 29 29 28 28 28 28 28 28 28 28 28 28 28 28 28 28 28 28 27 27 27 28 29 28 29 31 34 35 36 37 38 39 39 39 39 37 35 33 33 34 34 34 34 34 34 34 34 34 34 34 33 33
34 33 33 32 32 32 33 33 32 32 32 31 31 30 30 30 29 29 28 28 28 28 28 28 28 27 28 28 29 28 28 28 28 28 28 27 28 28 28 29 28 29 31 34 35 36 38 38 39 39 39 40 38 36 35 35 35 35 35 35 35 35 35 34 34 33 33 33 32
34 33 33 32 32 32 32 33 32 32 32 31 30 30 30 29 29 29 29 29 29 29 28 28 27 27 28 28 29 29 29 28 28 28 28 28 28 28 28 29 28 29 31 34 35 37 38 39 39 39 39 40 38 36 35 35 35 35 35 35 35 35 35 34 33 33 33 32 32
33 33 33 32 32 32 32 32 32 32 31 31 31 30 30 30 30 30 30 30 29 29 28 28 28 27 28 28 28 29 29 28 28 28 28 29 28 28 28 29 29 30 31 34 35 37 38 39 39 39 39 40 38 37 36 36 36 35 35 35 35 35 34 34 33 33 33 32 32
33 33 33 33 33 33 33 32 32 31 31 31 31 30 30 30 30 30 29 30 30 30 29 29 29 28 28 28 28 28 28 29 28 28 28 29 29 29 29 29 28 30 32 34 35 37 38 39 39 39 39 39 38 37 36 36 36 35 35 34 34 34 33 32 32 32 32 32 32
33 33 33 34 34 34 34 33 32 32 31 31 30 30 30 30 30 30 30 30 30 30 30 30 30 29 29 29 29 28 28 28 28 28 28 28 28 28 28 29 29 30 33 34 36 37 38 39 39 39 39 38 37 36 36 36 35 35 34 34 33 33 32 32 31 31 31 31 31
34 34 34 34 34 34 34 33 33 32 31 31 31 30 30 30 30 30 30 31 31 30 30 30 30 29 29 28 28 28 28 28 28 28 28 28 28 28 28 28 28 30 33 34 36 37 38 38 38 38 38 37 36 36 36 35 35 34 34 33 33 33 32 32 31 31 31 31 31
34 34 34 34 34 34 34 34 33 32 32 31 31 30 30 30 30 30 31 31 30 30 30 30 29 29 29 28 28 28 28 29 28 28 28 28 28 28 28 28 28 30 32 34 36 37 38 38 38 38 38 36 35 35 35 35 34 34 33 33 33 33 33 32 32 32 31 30 31
34 34 34 34 34 34 34 33 33 32 32 31 31 31 30 30 30 30 31 31 30 30 30 30 29 29 29 28 28 28 28 29 29 28 28 28 28 28 28 28 28 29 31 34 36 37 38 38 38 38 37 36 35 35 34 34 34 33 33 33 33 33 33 32 33 32 32 30 32
35 34 34 34 34 34 34 33 33 32 32 32 31 31 31 31 31 31 31 32 31 30 30 30 29 29 29 29 29 28 28 29 29 29 29 28 28 29 29 28 28 29 30 33 35 37 37 38 38 38 37 36 35 35 34 34 33 32 32 32 32 33 32 32 32 32 32 31 33
35 34 34 34 34 34 33 33 33 33 32 32 31 31 31 31 31 31 32 32 31 31 30 30 30 30 30 30 29 28 28 28 29 29 29 29 29 30 30 29 29 29 30 33 35 36 37 37 38 38 37 36 35 35 34 33 32 32 32 32 32 32 32 32 32 32 32 31 32
36 35 34 34 34 33 33 33 33 33 33 32 32 32 32 32 32 32 32 31 31 31 31 30 30 30 30 30 29 28 27 27 28 29 29 30 30 31 31 30 29 29 30 32 34 35 36 37 37 38 37 36 35 34 34 33 32 31 31 32 32 32 31 31 32 31 31 30 30
MSLP
1016.50 1016.58 1016.66 1016.78 1016.90 1017.02 1017.14 1017.22 1017.26 1017.38 1017.54 1017.70 1017.86 1018.02 1018.18 1018.38 1018.54 1018.70 1018.90 1019.10 1019.22 1019.34 1019.54 1019.74 1019.94 1020.22 1020.54 1020.90 1021.26 1021.54 1021.86 1022.14 1022.42 1022.66 1022.82 1023.02 1023.26 1023.54 1023.78 1023.98 1024.18 1024.38 1024.54 1024.70 1024.94 1025.14 1025.30 1025.50 1025.66 1025.78 1025.86 1025.94 1026.02 1026.10 1026.22 1026.26 1026.34 1026.42 1026.54 1026.58 1026.58 1026.58 1026.62 1026.66 1026.62 1026.58 1026.62 1026.66 1026.70
1015.98 1016.10 1016.26 1016.46 1016.58 1016.66 1016.82 1016.94 1017.06 1017.10 1017.22 1017.26 1017.42 1017.58 1017.74 1017.94 1018.10 1018.22 1018.42 1018.62 1018.70 1018.86 1019.10 1019.38 1019.58 1019.86 1020.22 1020.54 1020.86 1021.22 1021.54 1021.82 1022.06 1022.30 1022.54 1022.74 1022.94 1023.22 1023.46 1023.70 1023.90 1024.06 1024.22 1024.46 1024.66 1024.82 1025.02 1025.22 1025.38 1025.50 1025.62 1025.70 1025.78 1025.86 1025.94 1026.02 1026.10 1026.18 1026.22 1026.26 1026.30 1026.38 1026.38 1026.38 1026.34 1026.34 1026.38 1026.46 1026.50
1015.50 1015.74 1015.94 1016.14 1016.22 1016.30 1016.38 1016.54 1016.58 1016.66 1016.82 1016.94 1017.10 1017.30 1017.50 1017.58 1017.66 1017.82 1017.98 1018.18 1018.30 1018.54 1018.82 1019.06 1019.30 1019.54 1019.86 1020.18 1020.54 1020.86 1021.14 1021.42 1021.70 1021.98 1022.22 1022.42 1022.66 1022.94 1023.22 1023.38 1023.62 1023.82 1023.98 1024.14 1024.38 1024.54 1024.66 1024.86 1025.10 1025.22 1025.26 1025.38 1025.46 1025.54 1025.62 1025.70 1025.82 1025.90 1025.94 1025.98 1026.10 1026.10 1026.10 1026.10 1026.06 1026.10 1026.14 1026.14 1026.14
1015.10 1015.30 1015.50 1015.66 1015.66 1015.78 1015.82 1015.94 1016.14 1016.30 1016.50 1016.74 1016.94 1017.14 1017.26 1017.38 1017.46 1017.54 1017.70 1017.94 1018.14 1018.34 1018.54 1018.66 1018.94 1019.26 1019.54 1019.90 1020.22 1020.58 1020.86 1021.10 1021.38 1021.66 1021.94 1022.10 1022.38 1022.66 1022.90 1023.10 1023.34 1023.54 1023.70 1023.90 1024.10 1024.22 1024.38 1024.62 1024.78 1024.86 1024.94 1025.02 1025.10 1025.22 1025.30 1025.38 1025.54 1025.62 1025.66 1025.70 1025.82 1025.82 1025.82 1025.82 1025.82 1025.82 1025.86 1025.82 1025.82
1014.70 1014.82 1014.94 1015.10 1015.18 1015.30 1015.46 1015.66 1015.94 1016.10 1016.34 1016.58 1016.86 1017.06 1017.18 1017.26 1017.34 1017.42 1017.62 1017.82 1017.94 1018.06 1018.18 1018.42 1018.66 1018.98 1019.30 1019.66 1019.94 1020.30 1020.58 1020.86 1021.14 1021.38 1021.66 1021.86 1022.10 1022.38 1022.62 1022.82 1023.02 1023.26 1023.42 1023.62 1023.82 1023.94 1024.14 1024.38 1024.50 1024.58 1024.66 1024.74 1024.82 1024.90 1024.94 1025.10 1025.22 1025.30 1025.38 1025.46 1025.50 1025.54 1025.54 1025.54 1025.54 1025.54 1025.54 1025.54 1025.50
1014.46 1014.54 1014.66 1014.74 1014.94 1015.14 1015.34 1015.54 1015.70 1015.94 1016.18 1016.46 1016.66 1016.82 1016.94 1017.06 1017.22 1017.34 1017.42 1017.54 1017.66 1017.82 1018.02 1018.26 1018.54 1018.82 1019.10 1019.42 1019.74 1020.06 1020.34 1020.58 1020.86 1021.10 1021.34 1021.54 1021.82 1022.10 1022.38 1022.54 1022.70 1022.94 1023.14 1023.34 1023.54 1023.74 1023.94 1024.10 1024.22 1024.34 1024.38 1024.50 1024.58 1024.66 1024.74 1024.86 1024.98 1025.06 1025.10 1025.14 1025.18 1025.22 1025.26 1025.22 1025.22 1025.26 1025.26 1025.18 1025.14
1014.26 1014.42 1014.54 1014.66 1014.82 1014.98 1015.14 1015.30 1015.54 1015.78 1016.02 1016.22 1016.38 1016.46 1016.54 1016.74 1016.94 1017.06 1017.14 1017.26 1017.54 1017.78 1017.98 1018.18 1018.38 1018.58 1018.90 1019.26 1019.54 1019.82 1020.10 1020.34 1020.54 1020.78 1021.02 1021.26 1021.54 1021.78 1022.02 1022.22 1022.46 1022.66 1022.82 1023.06 1023.26 1023.50 1023.66 1023.82 1023.94 1023.98 1024.10 1024.22 1024.26 1024.38 1024.50 1024.66 1024.74 1024.82 1024.82 1024.82 1024.86 1024.86 1024.90 1024.94 1024.94 1024.94 1024.90 1024.86 1024.82
1014.14 1014.26 1014.38 1014.54 1014.66 1014.82 1014.94 1015.10 1015.34 1015.58 1015.78 1015.90 1016.02 1016.10 1016.22 1016.46 1016.66 1016.82 1017.02 1017.26 1017.46 1017.62 1017.78 1017.94 1018.14 1018.34 1018.58 1018.90 1019.22 1019.50 1019.74 1019.98 1020.22 1020.46 1020.70 1020.94 1021.26 1021.46 1021.70 1021.94 1022.18 1022.38 1022.54 1022.78 1022.94 1023.14 1023.34 1023.54 1023.66 1023.66 1023.74 1023.82 1023.90 1023.98 1024.14 1024.34 1024.46 1024.50 1024.50 1024.50 1024.54 1024.54 1024.58 1024.58 1024.66 1024.66 1024.62 1024.54 1024.54
1013.94 1013.98 1014.10 1014.34 1014.50 1014.62 1014.78 1014.94 1015.14 1015.30 1015.42 1015.54 1015.66 1015.78 1016.02 1016.30 1016.54 1016.74 1016.94 1017.10 1017.22 1017.38 1017.62 1017.74 1017.90 1018.10 1018.30 1018.58 1018.86 1019.14 1019.38 1019.66 1019.86 1020.10 1020.38 1020.66 1020.90 1021.14 1021.38 1021.66 1021.86 1022.06 1022.22 1022.46 1022.66 1022.82 1022.98 1023.22 1023.26 1023.34 1023.42 1023.50 1023.54 1023.62 1023.82 1024.02 1024.14 1024.22 1024.22 1024.18 1024.18 1024.18 1024.22 1024.26 1024.34 1024.34 1024.30 1024.26 1024.22
1013.54 1013.66 1013.86 1014.10 1014.22 1014.38 1014.58 1014.82 1014.94 1015.06 1015.14 1015.26 1015.38 1015.62 1015.86 1016.10 1016.34 1016.54 1016.66 1016.82 1017.06 1017.30 1017.46 1017.54 1017.74 1017.94 1018.18 1018.38 1018.58 1018.82 1019.10 1019.34 1019.54 1019.82 1020.10 1020.38 1020.58 1020.82 1021.06 1021.26 1021.50 1021.70 1021.94 1022.10 1022.34 1022.54 1022.70 1022.82 1022.94 1022.98 1023.06 1023.18 1023.26 1023.34 1023.50 1023.70 1023.82 1023.90 1023.94 1023.90 1023.86 1023.86 1023.90 1023.94 1023.94 1023.98 1024.02 1023.98 1023.94
1013.18 1013.38 1013.62 1013.82 1013.94 1014.18 1014.46 1014.66 1014.78 1014.86 1014.94 1015.06 1015.22 1015.42 1015.66 1015.82 1016.06 1016.22 1016.46 1016.70 1016.94 1017.10 1017.22 1017.34 1017.54 1017.78 1017.94 1018.14 1018.34 1018.54 1018.82 1019.06 1019.26 1019.54 1019.82 1020.02 1020.22 1020.42 1020.66 1020.86 1021.10 1021.34 1021.54 1021.78 1021.98 1022.22 1022.38 1022.50 1022.54 1022.62 1022.70 1022.82 1022.94 1023.10 1023.26 1023.38 1023.50 1023.54 1023.58 1023.54 1023.54 1023.54 1023.54 1023.58 1023.66 1023.66 1023.66 1023.66 1023.62
1012.98 1013.18 1013.38 1013.54 1013.74 1014.02 1014.22 1014.38 1014.50 1014.62 1014.74 1014.86 1014.98 1015.22 1015.38 1015.54 1015.70 1015.94 1016.26 1016.54 1016.66 1016.82 1016.94 1017.18 1017.38 1017.54 1017.70 1017.90 1018.10 1018.30 1018.54 1018.78 1019.02 1019.26 1019.50 1019.70 1019.90 1020.10 1020.34 1020.54 1020.74 1020.94 1021.18 1021.42 1021.66 1021.86 1021.98 1022.10 1022.14 1022.26 1022.38 1022.54 1022.66 1022.82 1022.94 1023.10 1023.18 1023.22 1023.26 1023.26 1023.26 1023.26 1023.26 1023.22 1023.30 1023.34 1023.34 1023.34 1023.30
1012.82 1013.02 1013.18 1013.34 1013.58 1013.82 1014.02 1014.10 1014.22 1014.38 1014.50 1014.62 1014.74 1014.94 1015.10 1015.26 1015.46 1015.74 1015.98 1016.22 1016.34 1016.54 1016.78 1017.06 1017.26 1017.38 1017.54 1017.66 1017.86 1018.10 1018.26 1018.50 1018.70 1018.94 1019.18 1019.38 1019.58 1019.82 1020.06 1020.26 1020.46 1020.66 1020.90 1021.10 1021.30 1021.46 1021.58 1021.66 1021.78 1021.90 1022.02 1022.18 1022.34 1022.46 1022.58 1022.70 1022.82 1022.86 1022.90 1022.90 1022.94 1022.90 1022.86 1022.86 1022.94 1022.98 1022.98 1022.98 1022.94
1012.62 1012.78 1012.94 1013.14 1013.42 1013.62 1013.78 1013.90 1013.98 1014.10 1014.22 1014.34 1014.46 1014.66 1014.86 1015.10 1015.30 1015.50 1015.66 1015.86 1016.06 1016.30 1016.58 1016.82 1017.02 1017.18 1017.30 1017.42 1017.62 1017.82 1017.98 1018.22 1018.38 1018.62 1018.82 1019.06 1019.26 1019.54 1019.74 1019.94 1020.14 1020.34 1020.54 1020.78 1020.94 1021.10 1021.18 1021.26 1021.38 1021.54 1021.66 1021.82 1021.94 1022.10 1022.22 1022.38 1022.46 1022.50 1022.50 1022.54 1022.54 1022.50 1022.50 1022.50 1022.54 1022.62 1022.66 1022.66 1022.58
1012.38 1012.54 1012.66 1012.94 1013.18 1013.38 1013.50 1013.62 1013.70 1013.82 1013.94 1014.06 1014.18 1014.38 1014.66 1014.86 1015.06 1015.26 1015.42 1015.62 1015.82 1016.06 1016.34 1016.58 1016.78 1016.94 1017.10 1017.26 1017.38 1017.54 1017.70 1017.94 1018.14 1018.34 1018.54 1018.74 1018.94 1019.18 1019.38 1019.54 1019.74 1019.94 1020.18 1020.38 1020.58 1020.74 1020.82 1020.90 1021.02 1021.14 1021.26 1021.38 1021.54 1021.70 1021.86 1021.98 1022.06 1022.10 1022.10 1022.10 1022.10 1022.10 1022.10 1022.10 1022.18 1022.22 1022.26 1022.26 1022.22
1012.02 1012.18 1012.38 1012.66 1012.82 1012.98 1013.10 1013.26 1013.34 1013.46 1013.58 1013.70 1013.86 1014.14 1014.38 1014.62 1014.82 1015.02 1015.22 1015.38 1015.58 1015.86 1016.10 1016.30 1016.50 1016.66 1016.90 1017.10 1017.22 1017.38 1017.54 1017.66 1017.86 1018.02 1018.22 1018.38 1018.62 1018.82 1018.94 1019.14 1019.38 1019.54 1019.78 1019.98 1020.22 1020.38 1020.46 1020.54 1020.66 1020.82 1020.94 1021.06 1021.22 1021.38 1021.50 1021.62 1021.66 1021.70 1021.74 1021.70 1021.74 1021.74 1021.74 1021.78 1021.82 1021.86 1021.90 1021.90 1021.86
1011.66 1011.82 1012.06 1012.26 1012.42 1012.54 1012.66 1012.82 1012.94 1013.06 1013.22 1013.38 1013.58 1013.86 1014.10 1014.30 1014.54 1014.74 1014.94 1015.10 1015.34 1015.54 1015.78 1015.94 1016.18 1016.42 1016.66 1016.82 1016.98 1017.14 1017.30 1017.38 1017.54 1017.66 1017.82 1017.98 1018.14 1018.34 1018.54 1018.74 1018.94 1019.10 1019.38 1019.62 1019.82 1019.98 1020.14 1020.22 1020.38 1020.50 1020.62 1020.78 1020.90 1021.02 1021.18 1021.26 1021.34 1021.34 1021.38 1021.38 1021.38 1021.38 1021.38 1021.46 1021.50 1021.54 1021.54 1021.54 1021.46
1011.38 1011.50 1011.70 1011.90 1011.98 1012.10 1012.22 1012.38 1012.58 1012.70 1012.90 1013.10 1013.34 1013.58 1013.82 1014.02 1014.22 1014.42 1014.62 1014.82 1015.02 1015.26 1015.46 1015.66 1015.94 1016.10 1016.26 1016.46 1016.66 1016.82 1016.94 1017.02 1017.10 1017.26 1017.38 1017.54 1017.66 1017.90 1018.10 1018.30 1018.50 1018.74 1018.98 1019.26 1019.42 1019.58 1019.74 1019.90 1020.06 1020.22 1020.34 1020.46 1020.58 1020.74 1020.82 1020.94 1020.98 1020.98 1021.02 1021.06 1021.06 1021.10 1021.10 1021.10 1021.14 1021.18 1021.18 1021.14 1021.10
1011.10 1011.26 1011.42 1011.54 1011.62 1011.78 1011.94 1012.10 1012.34 1012.54 1012.70 1012.94 1013.10 1013.34 1013.54 1013.74 1013.94 1014.18 1014.38 1014.54 1014.74 1014.94 1015.18 1015.38 1015.66 1015.82 1015.94 1016.10 1016.26 1016.38 1016.50 1016.58 1016.66 1016.82 1016.94 1017.10 1017.34 1017.54 1017.74 1017.94 1018.14 1018.38 1018.66 1018.90 1019.10 1019.26 1019.38 1019.54 1019.70 1019.86 1020.02 1020.14 1020.26 1020.38 1020.54 1020.62 1020.66 1020.66 1020.66 1020.70 1020.74 1020.74 1020.78 1020.82 1020.82 1020.86 1020.82 1020.78 1020.70
1010.82 1010.94 1011.10 1011.22 1011.38 1011.54 1011.74 1011.94 1012.14 1012.38 1012.58 1012.82 1013.02 1013.18 1013.38 1013.54 1013.74 1013.94 1014.14 1014.26 1014.42 1014.66 1014.90 1015.10 1015.30 1015.50 1015.66 1015.78 1015.94 1016.02 1016.10 1016.22 1016.30 1016.46 1016.62 1016.82 1017.02 1017.22 1017.42 1017.62 1017.82 1018.06 1018.30 1018.54 1018.74 1018.94 1019.10 1019.26 1019.38 1019.54 1019.66 1019.82 1019.94 1020.06 1020.18 1020.26 1020.30 1020.34 1020.38 1020.38 1020.38 1020.38 1020.38 1020.42 1020.46 1020.46 1020.42 1020.38 1020.38
1010.54 1010.66 1010.78 1010.94 1011.14 1011.34 1011.54 1011.70 1011.94 1012.22 1012.46 1012.66 1012.86 1013.06 1013.26 1013.38 1013.58 1013.74 1013.86 1014.02 1014.22 1014.46 1014.66 1014.78 1014.94 1015.10 1015.26 1015.42 1015.62 1015.70 1015.78 1015.86 1016.02 1016.14 1016.30 1016.54 1016.70 1016.86 1017.06 1017.30 1017.54 1017.78 1018.02 1018.26 1018.46 1018.62 1018.78 1018.94 1019.06 1019.18 1019.30 1019.46 1019.58 1019.66 1019.82 1019.90 1019.94 1019.94 1019.98 1020.02 1019.98 1020.02 1020.02 1020.06 1020.06 1020.06 1020.02 1020.02 1019.98
1010.26 1010.38 1010.58 1010.78 1010.98 1011.18 1011.38 1011.58 1011.82 1012.06 1012.30 1012.50 1012.66 1012.90 1013.10 1013.26 1013.38 1013.54 1013.70 1013.90 1014.10 1014.22 1014.38 1014.50 1014.62 1014.78 1014.94 1015.06 1015.22 1015.38 1015.46 1015.58 1015.70 1015.90 1016.10 1016.26 1016.42 1016.58 1016.82 1017.02 1017.26 1017.50 1017.74 1017.98 1018.14 1018.34 1018.50 1018.62 1018.70 1018.82 1018.98 1019.14 1019.26 1019.34 1019.42 1019.54 1019.54 1019.58 1019.58 1019.58 1019.58 1019.62 1019.66 1019.66 1019.66 1019.66 1019.62 1019.58 1019.54
1010.10 1010.26 1010.50 1010.70 1010.90 1011.10 1011.30 1011.54 1011.74 1011.94 1012.10 1012.30 1012.50 1012.70 1012.90 1013.02 1013.18 1013.38 1013.54 1013.74 1013.90 1013.98 1014.10 1014.22 1014.38 1014.50 1014.66 1014.78 1014.94 1015.10 1015.26 1015.38 1015.50 1015.66 1015.82 1016.02 1016.22 1016.38 1016.54 1016.82 1016.98 1017.18 1017.38 1017.62 1017.82 1018.06 1018.22 1018.38 1018.46 1018.54 1018.66 1018.78 1018.90 1018.98 1019.06 1019.14 1019.22 1019.22 1019.22 1019.22 1019.26 1019.26 1019.26 1019.26 1019.22 1019.22 1019.18 1019.10 1019.06
1010.06 1010.22 1010.46 1010.66 1010.86 1011.06 1011.26 1011.50 1011.66 1011.82 1011.94 1012.10 1012.26 1012.46 1012.66 1012.82 1012.98 1013.14 1013.34 1013.46 1013.58 1013.66 1013.82 1013.94 1014.10 1014.26 1014.42 1014.58 1014.74 1014.90 1015.02 1015.14 1015.26 1015.42 1015.62 1015.82 1015.94 1016.14 1016.34 1016.54 1016.66 1016.82 1017.02 1017.26 1017.50 1017.66 1017.86 1018.02 1018.14 1018.26 1018.38 1018.46 1018.58 1018.66 1018.74 1018.82 1018.86 1018.86 1018.86 1018.90 1018.86 1018.86 1018.82 1018.82 1018.74 1018.70 1018.66 1018.62 1018.54
1009.98 1010.22 1010.46 1010.66 1010.82 1011.06 1011.26 1011.38 1011.54 1011.66 1011.74 1011.90 1012.10 1012.30 1012.50 1012.66 1012.82 1012.94 1013.06 1013.18 1013.30 1013.38 1013.54 1013.70 1013.86 1014.06 1014.22 1014.38 1014.54 1014.66 1014.82 1014.90 1014.98 1015.14 1015.34 1015.54 1015.66 1015.86 1016.06 1016.22 1016.34 1016.50 1016.70 1016.94 1017.06 1017.22 1017.38 1017.54 1017.70 1017.90 1018.06 1018.14 1018.26 1018.38 1018.46 1018.50 1018.54 1018.54 1018.54 1018.54 1018.54 1018.46 1018.38 1018.30 1018.22 1018.22 1018.14 1018.06 1017.98
1009.82 1010.10 1010.30 1010.50 1010.70 1010.90 1011.06 1011.22 1011.34 1011.50 1011.66 1011.82 1011.98 1012.18 1012.34 1012.50 1012.66 1012.74 1012.82 1012.90 1012.98 1013.10 1013.26 1013.42 1013.62 1013.78 1013.94 1014.10 1014.26 1014.42 1014.54 1014.66 1014.74 1014.86 1015.02 1015.22 1015.38 1015.54 1015.70 1015.82 1015.94 1016.14 1016.38 1016.54 1016.62 1016.70 1016.82 1016.94 1017.14 1017.38 1017.62 1017.82 1017.94 1018.02 1018.10 1018.10 1018.14 1018.18 1018.22 1018.18 1018.14 1018.06 1017.94 1017.86 1017.74 1017.66 1017.66 1017.54 1017.50
1009.54 1009.78 1009.94 1010.14 1010.38 1010.54 1010.66 1010.82 1011.02 1011.22 1011.38 1011.58 1011.78 1011.94 1012.10 1012.26 1012.46 1012.54 1012.58 1012.62 1012.70 1012.82 1013.02 1013.18 1013.30 1013.42 1013.58 1013.78 1013.94 1014.06 1014.18 1014.26 1014.42 1014.62 1014.74 1014.86 1015.06 1015.18 1015.30 1015.46 1015.54 1015.78 1015.94 1016.10 1016.22 1016.26 1016.38 1016.46 1016.58 1016.82 1017.06 1017.34 1017.50 1017.58 1017.62 1017.66 1017.66 1017.74 1017.78 1017.74 1017.66 1017.62 1017.54 1017.42 1017.34 1017.26 1017.14 1017.10 1016.94
1009.14 1009.30 1009.42 1009.62 1009.82 1009.94 1010.10 1010.30 1010.58 1010.82 1010.94 1011.14 1011.34 1011.54 1011.74 1011.94 1012.14 1012.22 1012.26 1012.34 1012.42 1012.58 1012.74 1012.90 1013.02 1013.18 1013.34 1013.50 1013.58 1013.66 1013.78 1013.94 1014.14 1014.34 1014.50 1014.62 1014.74 1014.82 1014.94 1015.02 1015.14 1015.34 1015.50 1015.66 1015.78 1015.86 1015.94 1016.02 1016.10 1016.22 1016.38 1016.66 1016.90 1017.02 1017.10 1017.10 1017.10 1017.18 1017.18 1017.14 1017.14 1017.10 1017.06 1016.94 1016.86 1016.82 1016.70 1016.58 1016.54
1008.70 1008.82 1008.98 1009.14 1009.22 1009.30 1009.42 1009.66 1009.82 1009.98 1010.22 1010.50 1010.74 1010.98 1011.26 1011.46 1011.62 1011.78 1011.90 1012.02 1012.10 1012.22 1012.38 1012.54 1012.74 1012.94 1013.10 1013.14 1013.18 1013.38 1013.54 1013.70 1013.86 1014.06 1014.22 1014.38 1014.50 1014.58 1014.66 1014.70 1014.82 1014.94 1015.06 1015.26 1015.42 1015.54 1015.62 1015.62 1015.70 1015.74 1015.82 1015.98 1016.22 1016.42 1016.54 1016.58 1016.58 1016.58 1016.58 1016.58 1016.54 1016.54 1016.50 1016.46 1016.38 1016.34 1016.26 1016.22 1016.18
1008.42 1008.54 1008.66 1008.74 1008.82 1008.82 1008.86 1008.86 1008.82 1008.98 1009.26 1009.58 1009.94 1010.22 1010.54 1010.78 1010.98 1011.14 1011.34 1011.54 1011.66 1011.74 1011.90 1012.14 1012.42 1012.66 1012.70 1012.78 1012.94 1013.14 1013.38 1013.54 1013.66 1013.82 1013.98 1014.10 1014.22 1014.34 1014.42 1014.46 1014.54 1014.66 1014.78 1014.94 1015.10 1015.22 1015.30 1015.34 1015.38 1015.38 1015.46 1015.54 1015.70 1015.86 1015.98 1016.02 1016.06 1016.06 1016.02 1015.98 1015.94 1015.94 1015.94 1015.94 1015.94 1015.90 1015.90 1015.90 1015.86
1008.26 1008.38 1008.46 1008.54 1008.58 1008.58 1008.54 1008.38 1008.26 1008.22 1008.34 1008.54 1008.90 1009.26 1009.66 1009.90 1010.14 1010.38 1010.58 1010.86 1011.10 1011.34 1011.66 1011.94 1012.22 1012.30 1012.38 1012.54 1012.74 1012.94 1013.10 1013.26 1013.42 1013.58 1013.70 1013.82 1013.94 1014.02 1014.10 1014.22 1014.34 1014.42 1014.54 1014.66 1014.82 1014.90 1014.94 1014.98 1014.98 1015.10 1015.14 1015.18 1015.30 1015.42 1015.54 1015.54 1015.58 1015.58 1015.54 1015.50 1015.50 1015.54 1015.54 1015.58 1015.58 1015.58 1015.62 1015.62 1015.62
1008.22 1008.30 1008.38 1008.38 1008.38 1008.38 1008.38 1008.42 1008.38 1008.22 1008.02 1007.94 1008.14 1008.42 1008.70 1008.98 1009.26 1009.58 1009.94 1010.38 1010.78 1011.14 1011.50 1011.78 1011.94 1012.10 1012.22 1012.42 1012.58 1012.74 1012.90 1013.10 1013.22 1013.34 1013.46 1013.62 1013.70 1013.82 1013.94 1014.02 1014.10 1014.22 1014.34 1014.42 1014.54 1014.58 1014.62 1014.62 1014.66 1014.74 1014.82 1014.82 1014.94 1015.06 1015.14 1015.18 1015.22 1015.22 1015.18 1015.14 1015.14 1015.18 1015.22 1015.26 1015.26 1015.30 1015.34 1015.34 1015.38
1008.22 1008.30 1008.30 1008.26 1008.22 1008.22 1008.34 1008.46 1008.62 1008.54 1008.34 1008.06 1007.90 1007.94 1008.10 1008.38 1008.74 1009.18 1009.66 1010.10 1010.50 1010.86 1011.18 1011.38 1011.62 1011.82 1012.02 1012.22 1012.38 1012.54 1012.70 1012.86 1013.02 1013.14 1013.26 1013.42 1013.54 1013.66 1013.74 1013.82 1013.90 1013.98 1014.10 1014.18 1014.22 1014.26 1014.26 1014.30 1014.34 1014.38 1014.50 1014.54 1014.66 1014.74 1014.78 1014.82 1014.86 1014.86 1014.86 1014.82 1014.86 1014.90 1014.94 1014.94 1015.02 1015.06 1015.06 1015.10 1015.10
1008.38 1008.38 1008.38 1008.34 1008.22 1008.26 1008.38 1008.54 1008.70 1008.82 1008.78 1008.50 1008.10 1007.90 1007.94 1008.22 1008.58 1009.02 1009.38 1009.74 1010.10 1010.42 1010.66 1010.94 1011.18 1011.42 1011.62 1011.82 1012.10 1012.30 1012.46 1012.66 1012.82 1012.94 1013.10 1013.26 1013.38 1013.46 1013.54 1013.54 1013.66 1013.70 1013.82 1013.86 1013.90 1013.90 1013.90 1013.94 1014.02 1014.10 1014.18 1014.26 1014.38 1014.42 1014.50 1014.54 1014.54 1014.54 1014.54 1014.54 1014.58 1014.66 1014.70 1014.78 1014.82 1014.82 1014.82 1014.86 1014.90
1008.42 1008.46 1008.42 1008.38 1008.34 1008.38 1008.46 1008.58 1008.78 1008.94 1009.02 1008.86 1008.54 1008.26 1008.18 1008.38 1008.66 1008.94 1009.18 1009.50 1009.78 1010.06 1010.26 1010.50 1010.78 1011.02 1011.26 1011.50 1011.70 1011.94 1012.10 1012.26 1012.50 1012.66 1012.82 1012.94 1013.10 1013.18 1013.22 1013.22 1013.30 1013.38 1013.42 1013.46 1013.54 1013.54 1013.58 1013.62 1013.70 1013.82 1013.90 1013.98 1014.10 1014.14 1014.18 1014.22 1014.22 1014.22 1014.22 1014.22 1014.30 1014.38 1014.46 1014.54 1014.58 1014.62 1014.66 1014.66 1014.66
1008.26 1008.30 1008.30 1008.26 1008.34 1008.42 1008.54 1008.66 1008.82 1008.94 1009.02 1008.98 1008.82 1008.70 1008.66 1008.66 1008.74 1008.86 1009.02 1009.26 1009.50 1009.70 1009.90 1010.10 1010.34 1010.58 1010.78 1010.98 1011.22 1011.42 1011.62 1011.78 1011.98 1012.22 1012.38 1012.54 1012.66 1012.74 1012.82 1012.82 1012.94 1012.98 1013.02 1013.10 1013.10 1013.14 1013.22 1013.26 1013.38 1013.50 1013.62 1013.74 1013.82 1013.86 1013.86 1013.94 1013.90 1013.90 1013.94 1013.98 1014.06 1014.10 1014.18 1014.26 1014.30 1014.38 1014.38 1014.42 1014.38
1007.94 1008.02 1008.06 1008.10 1008.14 1008.22 1008.38 1008.54 1008.70 1008.82 1008.86 1008.86 1008.90 1008.82 1008.78 1008.66 1008.66 1008.66 1008.78 1008.94 1009.14 1009.26 1009.38 1009.58 1009.78 1009.94 1010.10 1010.30 1010.54 1010.74 1010.94 1011.18 1011.42 1011.66 1011.82 1011.94 1012.10 1012.22 1012.30 1012.38 1012.50 1012.54 1012.62 1012.66 1012.70 1012.74 1012.82 1012.90 1013.02 1013.14 1013.30 1013.42 1013.50 1013.54 1013.58 1013.62 1013.66 1013.66 1013.66 1013.70 1013.74 1013.82 1013.86 1013.94 1014.02 1014.06 1014.10 1014.10 1014.10
1007.54 1007.62 1007.70 1007.74 1007.82 1007.90 1008.06 1008.22 1008.38 1008.42 1008.50 1008.54 1008.58 1008.54 1008.50 1008.38 1008.34 1008.30 1008.38 1008.46 1008.58 1008.66 1008.82 1008.98 1009.18 1009.30 1009.46 1009.66 1009.94 1010.14 1010.38 1010.62 1010.82 1011.02 1011.22 1011.38 1011.50 1011.66 1011.82 1011.94 1012.02 1012.10 1012.22 1012.30 1012.34 1012.38 1012.42 1012.54 1012.66 1012.82 1012.94 1013.10 1013.14 1013.22 1013.26 1013.30 1013.38 1013.38 1013.38 1013.42 1013.46 1013.54 1013.58 1013.66 1013.74 1013.74 1013.78 1013.82 1013.82
1007.14 1007.26 1007.30 1007.34 1007.38 1007.46 1007.58 1007.70 1007.82 1007.86 1007.94 1008.02 1008.10 1008.10 1008.06 1008.02 1007.94 1007.90 1007.94 1007.94 1008.02 1008.10 1008.26 1008.46 1008.58 1008.78 1008.98 1009.26 1009.46 1009.66 1009.86 1010.02 1010.22 1010.38 1010.58 1010.78 1010.90 1011.10 1011.26 1011.42 1011.54 1011.66 1011.82 1011.94 1011.98 1012.02 1012.10 1012.22 1012.34 1012.42 1012.54 1012.74 1012.82 1012.90 1012.94 1013.06 1013.10 1013.10 1013.14 1013.18 1013.26 1013.26 1013.34 1013.38 1013.46 1013.46 1013.50 1013.54 1013.46
1006.74 1006.82 1006.90 1006.94 1006.94 1006.98 1007.10 1007.18 1007.22 1007.26 1007.38 1007.50 1007.58 1007.62 1007.62 1007.66 1007.62 1007.66 1007.66 1007.66 1007.70 1007.70 1007.82 1007.94 1008.10 1008.30 1008.54 1008.82 1008.98 1009.18 1009.38 1009.54 1009.70 1009.86 1010.02 1010.22 1010.42 1010.62 1010.78 1010.94 1011.10 1011.26 1011.42 1011.54 1011.62 1011.66 1011.78 1011.90 1011.98 1012.10 1012.22 1012.38 1012.50 1012.58 1012.66 1012.74 1012.82 1012.82 1012.86 1012.90 1012.94 1012.98 1013.02 1013.10 1013.18 1013.22 1013.26 1013.26 1013.22
1006.34 1006.42 1006.46 1006.50 1006.54 1006.58 1006.62 1006.66 1006.66 1006.74 1006.86 1006.98 1007.06 1007.10 1007.22 1007.34 1007.42 1007.50 1007.54 1007.50 1007.46 1007.46 1007.50 1007.58 1007.70 1007.90 1008.10 1008.34 1008.50 1008.66 1008.90 1009.10 1009.26 1009.42 1009.66 1009.86 1010.10 1010.22 1010.34 1010.50 1010.66 1010.86 1011.06 1011.18 1011.26 1011.38 1011.46 1011.54 1011.66 1011.74 1011.90 1012.06 1012.18 1012.26 1012.38 1012.46 1012.54 1012.54 1012.54 1012.62 1012.66 1012.70 1012.78 1012.82 1012.86 1012.90 1012.94 1012.94 1012.98
Wind_Speed
16 14 13 12 11 11 10 10 10 10 9 9 10 10 10 11 11 10 10 10 10 10 9 9 10 10 12 14 16 16 16 16 16 16 16 16 15 14 14 13 13 12 12 12 11 10 9 9 8 6 5 6 6 7 7 6 7 8 8 8 8 8 9 10 10 11 12 12 10
17 17 15 14 13 11 10 10 10 10 10 9 9 10 10 10 11 10 10 10 10 9 9 8 10 11 13 15 16 16 16 16 17 17 16 16 15 15 14 13 13 13 13 12 11 10 8 9 8 6 6 6 6 7 7 7 7 8 9 10 8 7 8 9 10 11 11 11 10
17 16 15 15 14 13 12 11 11 12 12 10 9 9 9 10 10 10 10 10 10 9 9 8 9 11 13 15 15 15 15 16 17 16 15 15 15 15 14 13 13 13 13 12 11 10 8 9 8 7 6 6 7 7 7 7 7 8 8 10 8 7 7 7 8 9 9 8 9
17 17 16 17 18 17 15 12 12 13 12 10 9 9 9 9 8 8 9 9 10 10 9 9 10 11 12 13 14 14 15 16 16 16 15 14 14 15 15 14 14 13 13 12 11 11 10 9 7 6 7 7 8 8 7 7 7 8 7 8 7 7 7 7 7 7 7 7 9
17 17 17 16 19 18 16 13 12 12 11 9 8 8 8 8 7 8 8 8 9 10 10 11 10 10 11 13 14 15 15 16 16 16 14 14 14 14 14 14 14 13 13 12 12 11 10 10 7 6 6 7 7 7 7 7 8 7 7 6 6 7 7 7 7 7 7 7 7
16 16 16 15 17 16 15 13 13 12 10 8 9 9 9 8 8 8 9 9 10 11 11 12 11 11 11 13 14 15 15 15 15 15 14 14 14 14 14 15 14 13 12 12 12 11 11 10 7 6 6 6 7 7 8 8 8 8 7 7 7 7 7 8 7 7 7 8 9
15 15 15 15 16 15 14 14 12 11 10 9 12 13 13 11 11 11 12 10 9 10 11 11 11 11 12 13 13 14 14 14 14 15 15 14 14 14 14 14 14 13 12 12 12 11 10 10 7 6 6 7 6 7 8 8 8 8 8 8 7 7 7 8 7 7 8 10 11
14 15 15 15 15 15 15 15 12 11 10 10 12 15 15 14 14 13 12 10 9 10 10 10 12 13 13 14 14 14 14 15 14 15 15 14 14 14 15 14 14 13 13 12 12 11 10 9 7 7 7 7 6 7 8 10 10 10 10 10 8 7 7 8 7 8 9 11 12
13 14 14 14 14 15 15 14 13 13 12 12 14 15 15 14 14 13 12 10 10 10 10 10 12 14 14 15 15 15 15 15 15 14 14 14 14 15 14 14 13 13 12 12 12 12 11 9 7 7 7 7 7 7 8 10 11 11 11 10 9 9 8 8 9 9 10 11 12
14 13 13 13 14 14 14 14 14 14 14 14 14 14 14 15 14 13 12 10 9 10 11 11 12 14 14 15 15 15 14 14 14 14 14 14 15 15 14 13 13 13 12 12 11 12 11 9 8 8 8 8 9 9 9 10 11 12 11 9 9 10 10 10 10 11 11 11 12
14 13 13 12 13 13 13 14 13 14 14 14 14 14 14 15 14 13 12 10 10 11 12 12 13 14 14 14 14 14 14 13 13 13 14 14 15 15 14 14 14 13 13 12 11 10 10 9 9 10 10 9 10 10 10 11 11 12 12 10 10 11 11 12 11 11 11 11 13
14 13 12 12 12 13 13 14 13 13 13 14 14 13 13 13 14 13 12 11 12 13 13 12 13 14 14 12 13 13 13 13 13 14 14 14 15 15 14 14 14 13 13 13 11 10 9 10 10 11 12 11 10 9 10 11 12 12 12 12 12 12 12 12 12 11 10 11 12
14 13 12 12 12 12 13 13 12 12 13 14 14 13 12 12 13 13 13 14 13 12 11 11 12 13 13 12 13 13 13 13 14 14 14 14 14 14 14 14 14 13 13 13 12 11 10 11 12 12 13 12 10 10 10 12 12 12 13 13 13 13 13 13 12 11 11 11 12
13 13 12 12 12 12 13 13 12 12 13 14 14 13 12 12 12 13 13 13 13 12 11 11 11 12 12 13 13 13 13 13 14 14 14 14 14 14 14 13 14 13 13 12 12 12 12 12 13 13 13 13 12 12 12 12 12 12 13 13 13 13 13 13 12 12 12 12 13
13 13 13 12 12 12 12 13 12 12 13 14 14 13 11 11 12 12 12 13 13 11 10 10 11 11 12 13 13 14 14 14 14 15 15 14 14 14 14 14 14 13 13 12 12 13 13 13 13 13 13 13 13 12 12 12 12 12 13 13 13 13 13 13 12 12 12 12 13
13 13 13 13 13 13 13 13 11 12 12 13 13 12 11 11 11 12 12 12 12 11 10 11 11 11 11 13 13 14 14 14 14 15 15 15 15 15 15 15 14 14 14 13 13 13 13 13 13 13 13 13 12 12 13 13 13 13 13 13 13 13 13 13 12 12 12 12 13
14 14 13 14 14 15 14 14 12 12 12 13 12 12 12 11 10 11 12 13 11 11 11 12 11 11 11 12 13 13 13 14 14 15 15 15 15 16 15 15 15 15 14 14 14 13 13 13 13 12 12 12 12 12 12 12 12 13 13 13 13 13 13 13 12 12 12 13 14
14 14 14 14 15 16 16 15 13 13 13 13 12 12 11 11 11 11 12 13 12 12 13 13 12 11 12 13 13 13 13 14 14 15 15 15 16 16 15 15 15 14 14 14 14 14 14 14 13 12 12 12 11 11 11 12 12 12 13 13 13 13 13 13 12 12 12 13 14
14 14 14 15 16 16 16 15 14 13 12 12 11 11 11 12 12 12 12 13 13 14 14 13 13 12 13 14 13 13 13 14 15 15 15 15 15 15 15 15 14 14 14 14 14 14 14 14 13 13 12 11 11 11 11 12 12 12 12 13 13 13 12 12 13 13 13 14 14
14 14 15 15 15 15 15 15 14 13 12 11 11 11 12 12 12 13 13 13 14 14 14 14 13 13 13 14 14 14 14 13 14 15 15 15 15 15 15 15 14 14 13 13 13 13 13 13 13 13 13 12 12 12 12 12 12 12 12 12 12 12 13 13 13 14 14 14 14
14 14 14 14 14 14 14 13 13 12 11 11 11 11 12 12 12 13 14 13 14 14 14 14 14 14 15 15 15 15 14 12 13 14 14 14 14 15 14 14 14 13 13 13 13 13 13 13 13 13 13 12 12 12 12 12 12 12 12 11 11 12 13 13 14 14 14 14 14
14 13 13 13 13 13 12 12 11 11 11 11 11 11 12 12 12 13 13 13 13 14 14 15 15 15 15 15 16 15 14 12 13 13 14 13 14 14 14 13 13 13 12 13 13 13 13 13 13 13 12 12 12 12 12 12 12 12 12 12 12 13 13 14 14 14 14 14 15
12 12 11 11 11 11 11 11 11 11 11 11 11 11 12 12 12 12 13 13 13 14 14 14 14 15 15 15 15 15 14 13 13 13 13 13 13 13 13 12 13 13 13 12 12 12 12 12 12 12 12 11 12 12 13 13 12 12 12 13 13 13 13 14 14 14 14 14 15
11 10 9 8 9 10 10 10 11 11 11 12 12 12 12 12 12 12 13 13 14 14 14 12 12 13 14 14 15 15 15 14 14 14 14 14 13 13 13 12 12 13 12 11 12 13 13 11 10 11 11 11 11 11 12 12 11 11 11 12 12 13 13 14 14 15 15 15 15
9 9 8 8 9 9 10 10 11 11 12 12 12 11 12 12 12 12 13 14 14 14 14 13 13 13 13 13 14 14 15 15 15 14 14 15 14 14 13 12 12 11 11 11 15 18 18 15 12 10 10 10 10 10 10 11 11 12 12 12 12 13 13 14 15 15 15 16 15
9 9 9 9 9 9 10 11 11 11 11 11 11 11 12 12 12 12 13 14 14 14 14 14 13 13 13 13 14 14 15 14 15 15 15 15 15 14 13 12 11 10 10 13 18 22 23 21 18 14 11 9 10 10 10 10 11 12 12 13 13 13 13 13 14 15 15 15 15
10 10 11 10 11 11 12 12 12 12 12 12 12 12 12 12 11 12 14 14 14 14 14 13 13 13 13 13 14 15 15 14 14 15 15 15 15 15 14 12 11 9 10 15 20 23 24 24 23 20 16 11 11 10 10 10 11 12 13 13 13 14 14 14 14 15 15 14 14
11 12 12 12 13 14 14 13 13 13 13 13 13 13 13 13 13 14 14 14 14 13 13 12 12 12 11 11 14 15 16 15 15 14 14 15 15 15 15 13 11 11 13 18 22 24 24 24 24 23 20 16 12 11 11 11 11 12 12 12 13 14 14 14 13 13 14 14 13
13 13 13 14 15 15 15 15 16 16 16 15 15 14 14 14 15 15 15 15 15 14 13 11 10 10 10 12 13 14 15 15 14 14 14 14 15 15 14 13 12 13 16 21 23 24 24 24 24 24 23 20 13 10 10 10 10 10 11 11 11 12 13 13 12 12 12 13 12
13 13 13 14 15 16 16 17 18 18 17 16 16 16 16 16 16 17 17 16 16 15 13 11 10 11 12 14 13 13 14 14 14 13 14 15 15 15 14 14 13 14 17 22 23 23 24 24 24 23 23 22 16 12 9 10 10 10 10 10 11 12 12 12 13 13 12 12 11
12 12 13 14 15 16 17 18 18 18 18 17 18 18 18 18 19 18 18 17 16 14 13 12 13 14 15 14 13 13 14 14 14 14 14 15 15 15 15 15 14 14 16 21 22 23 24 24 23 23 23 23 18 13 9 10 10 11 11 11 12 12 13 12 12 12 12 12 11
11 12 13 14 15 15 16 16 16 17 18 18 19 19 20 20 19 18 17 15 14 13 13 14 14 15 15 14 14 14 14 14 14 14 14 14 15 15 15 14 14 14 16 20 22 23 24 24 23 23 22 22 18 13 10 10 11 11 11 12 13 13 12 10 10 11 11 11 11
11 12 13 14 14 15 14 14 14 15 16 17 18 19 19 19 17 16 15 14 13 14 14 15 15 15 15 15 14 14 14 14 14 14 14 15 14 14 14 13 12 14 17 21 22 23 24 23 23 22 22 22 17 14 11 11 10 10 10 11 12 12 12 11 10 10 10 11 10
11 12 13 14 14 14 13 13 13 13 14 15 16 17 17 16 15 14 13 13 13 13 14 15 15 15 15 14 14 14 14 13 13 14 14 15 14 14 14 12 10 13 17 21 23 24 24 23 22 22 22 21 16 13 11 12 10 10 10 10 10 10 10 10 10 10 10 10 10
11 12 13 13 13 13 12 12 12 12 13 14 14 14 14 13 13 13 13 13 13 13 13 14 14 14 14 14 14 14 14 14 13 14 14 14 14 15 15 13 11 14 19 22 23 24 24 23 22 22 21 19 14 11 10 11 11 10 10 10 10 9 9 9 9 9 9 10 10
11 12 13 13 13 12 12 11 11 12 13 14 13 12 12 11 12 12 12 13 13 13 14 14 14 14 14 14 14 15 15 15 14 14 15 15 15 15 15 14 14 16 20 23 24 24 24 23 22 21 20 16 11 9 9 9 9 10 10 10 10 10 9 9 9 9 9 9 9
11 12 13 13 13 12 11 11 11 12 13 14 13 12 11 11 12 12 12 13 14 14 15 15 15 15 16 16 15 15 16 16 16 16 16 16 17 16 16 15 15 17 20 23 24 24 23 22 22 21 18 14 10 9 8 8 8 8 9 10 10 10 9 8 8 9 9 9 9
12 12 13 13 13 12 12 11 12 13 14 14 13 12 12 12 12 13 13 14 15 15 16 15 16 16 16 16 16 16 16 16 17 17 17 18 18 17 17 16 16 17 18 22 23 23 23 22 22 20 18 12 10 9 8 8 8 8 8 9 9 9 9 8 7 8 8 9 11
12 12 13 13 13 13 12 12 13 14 14 14 13 13 13 13 13 13 14 14 15 15 16 16 16 16 16 16 15 16 16 17 18 18 18 18 18 18 18 17 16 16 17 21 22 23 23 22 21 21 18 13 10 9 8 7 8 8 8 9 9 9 9 7 7 7 8 9 13
12 13 13 14 14 14 14 14 15 15 14 14 14 14 14 13 13 13 13 13 14 15 15 15 16 16 16 16 16 16 17 17 18 18 18 18 18 20 20 18 16 16 17 20 22 22 22 22 21 21 19 13 10 8 7 7 7 8 9 9 8 8 8 7 6 6 7 8 12
12 13 14 15 15 15 15 15 15 15 14 13 14 14 13 12 12 12 12 12 13 14 14 13 15 16 16 16 16 16 17 17 18 18 18 18 18 19 20 18 16 16 16 18 21 22 22 22 21 21 19 13 10 8 7 6 7 9 10 10 8 8 7 7 6 6 7 7 8
Wind_Direction
213 213 212 211 210 210 211 213 212 209 204 199 198 197 196 196 198 198 195 193 195 194 193 192 192 192 190 188 186 188 190 193 194 195 196 196 195 194 193 193 192 193 193 194 193 193 193 194 196 200 206 209 212 214 216 217 218 219 221 222 228 232 234 237 240 241 241 240 240
213 213 212 212 212 212 212 213 212 210 206 202 200 198 197 197 199 198 196 195 196 193 190 190 189 188 187 186 186 187 189 191 193 194 196 196 195 193 192 192 193 193 193 192 191 190 191 191 193 198 205 209 212 215 216 217 216 219 222 224 228 232 235 237 241 242 243 242 240
212 211 211 212 212 211 211 211 211 209 207 204 200 198 198 200 201 199 197 196 194 191 188 187 187 186 185 184 184 186 188 190 191 193 195 195 194 192 192 192 193 194 194 192 190 190 190 188 192 198 205 209 211 215 217 216 215 218 222 224 228 231 234 238 241 242 241 240 237
211 210 210 211 212 212 212 210 210 209 207 204 200 199 200 203 203 201 197 194 192 191 190 187 185 184 183 183 183 185 187 189 189 191 194 195 192 192 191 192 192 193 193 192 191 191 190 188 192 200 208 211 213 215 217 214 212 216 221 223 226 229 233 237 239 239 238 239 236
212 210 209 211 212 213 213 212 210 208 206 201 198 199 202 204 204 200 196 192 194 194 191 185 182 181 181 181 182 184 186 188 189 190 193 194 192 191 190 191 191 192 192 191 190 190 190 188 194 203 209 211 213 216 217 214 213 217 222 225 226 228 231 235 236 236 236 237 235
215 214 213 213 212 213 214 214 210 207 203 197 198 200 202 202 201 201 199 198 196 193 189 185 182 180 178 178 181 183 185 188 189 190 192 193 191 190 190 192 192 191 190 190 190 190 189 189 196 204 208 209 216 219 218 213 215 218 223 227 227 228 230 232 234 235 235 237 237
217 216 215 215 213 213 213 213 209 204 200 198 201 203 204 201 200 201 201 199 194 190 187 187 185 181 178 177 180 183 185 186 189 190 190 191 189 189 189 191 191 190 190 188 188 189 190 191 197 204 208 209 214 215 214 211 214 219 224 227 228 228 229 231 232 234 236 238 238
218 217 215 214 213 212 212 211 207 203 201 201 204 205 205 201 201 200 200 197 193 190 188 188 186 183 180 178 181 183 184 185 188 188 188 188 187 188 188 189 189 190 190 188 188 189 190 192 199 205 208 209 213 212 210 208 213 218 224 228 229 228 227 228 229 232 235 238 239
219 217 215 213 212 211 211 210 206 204 204 206 207 207 205 201 200 199 198 198 194 190 188 189 187 184 182 181 182 183 184 185 186 186 186 186 186 186 186 187 188 189 190 189 190 190 190 193 200 205 207 209 213 212 208 204 210 216 223 228 230 230 229 229 228 231 235 238 239
218 215 212 211 211 210 209 208 208 207 208 210 209 207 204 202 200 199 198 198 192 190 190 191 186 184 183 183 183 183 183 184 184 184 184 185 185 185 185 186 187 188 189 189 190 190 191 195 202 206 209 210 213 213 210 205 209 215 221 227 229 231 232 231 231 232 235 238 240
217 213 210 209 209 207 206 207 209 209 210 212 209 206 204 203 201 199 197 194 192 193 194 191 185 184 184 184 184 184 183 183 183 183 183 185 186 186 186 186 186 187 188 188 188 189 192 198 203 207 209 210 211 212 212 210 212 217 221 228 230 233 234 235 233 234 236 239 242
217 214 210 208 206 204 203 206 208 210 210 212 209 206 204 203 200 197 194 193 195 195 194 189 185 184 185 185 185 184 183 183 182 182 183 186 186 186 186 187 186 187 188 188 188 189 194 200 203 206 207 209 209 210 212 212 215 219 224 229 231 233 235 236 235 235 236 238 242
216 213 210 207 203 201 202 206 208 210 210 212 210 207 204 204 199 195 193 194 196 195 191 187 186 186 186 186 185 184 183 183 182 182 183 185 185 185 186 187 187 188 189 189 189 191 195 200 202 204 206 208 209 210 211 212 215 220 224 228 230 233 235 237 236 236 238 239 242
215 212 209 205 201 201 203 206 209 210 211 212 210 207 204 202 198 195 193 196 196 193 188 186 187 189 189 187 185 184 183 182 182 183 184 185 185 186 187 189 188 189 189 190 191 194 197 200 202 204 206 208 210 211 211 211 215 219 223 227 230 233 235 237 237 237 238 239 242
214 211 208 202 200 201 204 207 209 211 211 212 210 207 203 201 198 196 195 196 195 191 187 185 188 190 190 188 186 185 183 182 182 183 184 185 186 187 188 190 189 189 190 191 193 196 200 202 202 204 206 208 210 211 212 213 215 219 222 226 229 232 235 238 238 238 238 239 242
213 210 206 201 201 203 205 207 209 211 211 212 208 205 202 201 199 196 195 195 193 190 188 187 188 188 188 189 187 185 184 183 184 184 185 186 188 189 190 190 190 190 190 191 193 197 201 203 203 204 206 208 210 212 213 214 217 220 223 226 229 232 235 237 238 239 239 240 243
213 210 206 202 203 205 206 207 209 210 210 210 206 203 201 199 197 196 195 194 192 190 190 190 187 186 186 188 187 186 185 185 186 187 188 189 189 190 191 191 190 189 189 190 193 198 202 204 205 205 206 208 211 213 215 215 218 221 224 227 230 232 235 237 238 239 241 242 244
214 210 206 204 206 207 208 208 209 210 209 208 204 201 199 197 195 196 196 194 192 190 190 189 188 186 186 187 187 187 188 189 190 191 192 192 191 191 191 192 190 189 188 190 194 198 201 203 204 205 206 209 212 214 216 217 220 222 225 228 230 232 234 236 238 239 241 243 245
215 212 209 208 208 209 209 209 209 210 209 206 202 200 199 197 195 195 195 195 193 191 190 189 188 188 188 188 189 190 191 192 192 193 193 193 192 192 192 192 190 188 188 191 196 199 201 202 203 204 205 209 212 215 217 218 221 224 226 228 231 233 234 236 237 239 241 243 245
216 213 211 210 210 210 210 209 210 209 208 206 202 200 199 198 195 195 196 196 194 192 190 189 189 190 190 190 191 192 194 194 193 194 194 193 192 192 192 191 189 188 189 192 197 200 202 203 203 204 205 207 211 215 217 219 222 225 227 229 231 233 235 236 238 240 241 242 244
218 215 213 211 210 210 210 209 208 207 206 205 203 201 199 197 197 197 197 196 194 192 192 193 192 192 191 192 192 194 196 195 194 194 194 193 193 192 192 189 188 187 189 193 198 201 203 203 203 204 205 207 211 214 216 219 223 225 227 229 232 234 235 237 239 240 241 242 242
220 217 214 212 210 209 208 207 206 205 204 204 203 201 199 198 198 198 198 195 194 194 195 196 195 194 193 193 194 195 196 196 194 194 194 193 194 193 191 188 187 187 190 194 199 202 203 204 204 203 204 207 211 213 216 219 223 226 228 231 234 236 237 239 240 241 242 242 241
222 218 215 212 210 209 207 205 203 203 203 204 203 202 200 200 199 197 196 195 195 197 198 198 198 197 196 195 195 196 196 197 196 195 195 194 193 192 191 188 187 189 192 196 199 201 202 204 204 204 204 207 211 214 217 220 223 226 229 233 236 238 239 241 241 242 242 242 242
221 218 214 211 208 207 206 204 203 203 204 205 204 202 201 200 198 196 196 196 198 199 199 199 199 198 198 198 197 197 197 197 196 195 195 194 193 191 190 189 189 192 195 198 199 200 200 201 202 203 205 207 211 215 217 219 222 226 230 233 237 239 241 242 242 242 242 242 243
218 215 212 208 206 205 205 204 204 205 206 206 204 203 202 201 199 197 197 198 200 200 200 200 199 198 198 199 199 199 199 199 196 194 193 194 193 191 189 190 192 194 197 201 205 205 205 203 200 200 202 206 210 214 217 219 222 225 228 232 236 239 243 244 244 243 243 243 243
211 209 208 205 202 202 204 205 206 207 207 206 205 204 204 202 200 199 199 200 201 201 200 199 199 198 197 198 199 200 201 201 199 196 194 193 192 191 190 191 192 194 198 204 209 210 210 209 205 202 199 200 206 211 216 219 221 223 226 229 233 237 240 243 244 244 243 244 244
205 205 204 202 200 201 203 204 204 205 205 205 205 205 205 202 202 201 202 203 202 201 200 200 200 200 199 200 200 201 202 202 200 198 196 194 193 192 192 193 193 194 199 206 211 213 214 213 211 207 203 199 202 207 213 218 219 221 223 226 229 232 235 238 241 244 245 246 246
204 203 202 199 200 201 201 200 200 202 203 203 203 204 203 202 203 204 205 204 202 200 200 201 201 200 201 203 203 202 201 200 199 199 198 197 196 195 194 194 194 196 201 207 212 215 217 217 216 214 210 205 203 206 211 217 219 220 221 222 225 228 230 233 238 242 246 250 250
205 203 202 201 202 201 200 198 199 200 200 200 200 200 201 201 204 205 206 205 202 201 200 200 199 201 204 207 205 203 201 200 200 199 198 199 199 198 198 197 197 199 204 208 213 216 218 219 219 219 218 214 209 207 210 216 220 223 224 224 225 227 229 231 237 242 247 251 251
207 205 204 205 205 204 203 201 199 197 196 195 196 197 198 201 203 205 205 205 203 202 200 197 198 203 207 208 205 202 201 201 200 199 199 199 200 201 201 201 199 201 205 209 213 217 219 220 221 222 223 222 220 217 215 218 224 228 231 232 234 235 237 240 244 247 248 250 250
209 207 207 208 209 210 209 207 203 199 195 192 192 194 197 200 203 204 204 203 203 202 200 198 202 207 209 208 205 203 202 201 201 200 200 200 201 202 202 202 201 203 207 210 215 218 220 221 221 223 225 226 225 223 221 222 227 231 235 238 239 241 243 246 247 246 246 246 247
213 211 211 212 214 215 215 214 210 205 200 195 193 195 198 201 203 203 202 201 201 201 201 202 206 208 210 209 207 205 203 201 200 200 200 200 201 202 203 203 202 203 207 211 216 219 221 222 222 224 226 228 228 227 225 225 229 233 237 241 242 242 242 242 242 241 240 241 243
218 217 217 218 219 220 220 219 218 215 210 203 200 199 200 202 201 200 198 197 198 200 202 204 206 207 209 208 208 207 205 202 201 201 201 202 203 203 204 204 204 205 208 213 217 220 222 222 223 225 227 228 230 229 228 229 231 234 237 239 240 240 238 236 236 237 238 239 243
225 224 225 226 226 225 224 222 223 223 221 216 211 207 203 202 200 197 196 196 197 200 202 204 206 207 207 207 206 206 205 203 202 202 202 203 203 204 205 204 204 206 209 214 218 220 222 223 224 226 228 230 231 231 231 231 233 234 235 235 236 234 232 231 233 235 237 240 243
227 229 231 233 233 232 230 228 227 228 228 227 223 216 209 203 200 198 196 196 197 200 203 205 205 206 205 205 205 204 204 204 202 201 201 201 202 204 205 205 205 207 210 214 218 220 221 222 223 225 227 229 231 231 231 232 234 234 234 233 233 231 229 229 231 233 236 238 242
227 230 233 236 237 236 235 233 231 232 232 233 230 224 216 208 203 200 198 196 198 200 203 204 203 203 203 202 202 203 203 202 200 199 199 199 200 202 204 205 206 209 211 214 217 219 220 221 222 224 226 228 229 229 229 231 233 234 234 234 234 233 232 230 231 233 235 237 240
225 228 231 235 236 236 235 234 233 233 233 234 231 225 217 210 206 202 198 196 199 201 203 202 202 202 201 199 199 200 201 200 198 198 198 199 199 200 202 204 206 210 212 215 217 218 219 219 221 222 223 225 225 226 227 229 232 234 235 236 238 237 236 234 233 234 235 235 238
224 225 227 231 233 233 232 230 230 230 231 231 228 222 216 210 206 202 199 197 199 201 203 202 202 202 201 198 197 198 199 199 198 198 198 199 198 199 200 203 206 209 212 214 216 217 217 218 219 220 221 222 223 223 225 228 231 233 236 238 241 241 239 235 233 234 235 235 240
222 222 223 226 228 228 227 226 226 227 227 226 224 220 215 211 208 205 202 200 201 202 202 202 203 202 199 196 196 197 198 198 199 199 199 199 198 198 199 202 206 208 211 213 215 216 217 217 219 220 221 222 221 221 222 225 229 232 235 239 243 243 240 232 230 231 235 238 244
221 219 220 223 225 225 225 224 224 223 223 221 220 217 214 212 210 207 205 203 203 203 203 203 203 200 198 195 196 197 198 199 200 200 200 199 199 199 200 203 205 207 209 211 213 214 216 217 219 220 220 222 220 219 219 221 226 231 235 238 242 242 239 232 228 229 234 239 245
220 218 219 221 222 222 223 224 224 222 220 218 217 216 214 211 211 209 206 206 205 205 204 204 202 199 197 196 197 197 198 199 200 201 200 199 200 201 202 203 204 205 207 209 211 213 214 216 218 219 219 220 218 216 215 217 225 231 235 238 240 241 241 238 232 231 232 235 242